STARLINK-31886, 59662

Orbit data source: Space-Track

STARLINK-31886, 59662 is a payload satellite owned by SpaceX/Seattle (US) in LEO that was launched on Mon, 06 May 2024 UTC via an FALCON 9 launch vehicle from the Air Force Eastern Test Range (AFETR). Payload-class satellites include a variety of spacecraft equipped with specific instruments for various scientific and technological missions. These include communications satellites like Starlink; space stations such as the ISS; scientific satellites like the Hubble; Earth observation satellites from companies like Planet Labs, Umbra, and HawkEye 360; GPS; miniature CubeSats for education and research; and military/defense satellites.

Loading next visibility...
Identifier
59662, 2024-084J
Orbit
LEO
Country
Flag of USUS
Related business
Manufacturer
SpaceX/Seattle
Mission
Operational Commercial Communications
Bus & Motor
STARLINK V2M, Unknown motor
Mass
730 kg wet, ~700 kg dry
Launch date (UTC)
2024-05-06 (1 year ago)
Launch vehicle
FALCON 9
Launch site
Air Force Eastern Test Range (AFETR)
Object type
Payload
Rocket body
Debris
Shape & HBR
Box + 2 Pan, 17.7 m
Radar Cross Section
33.884 m², Large (>1 m²)

Expand to show TLE details & history
Last TLE update: 7 hours ago

TLE from 7 hours ago
0 STARLINK-31886
1 59662U 24084J   25288.61195127 -.00003711  00000-0 -12548-3 0  9990
2 59662  43.0016 141.2700 0001703 265.1098  94.9559 15.27554621 82189
Epoch: 2025-10-15T14:41Z
TLE epoch observation values (Epoch: 2025-10-15T14:41:12.589Z)
Latitude
-0.00004°
Longitude
-103.41603°
Altitude
483.002 km
Speed
7.626 km/s
True Right ascension
09h 25m 04s
True Declination
0° 00' 00"
Sunlit
Object was in daylight at epoch
Visualization orbit readout
Latitude
Unknown
Longitude
Unknown
Altitude
Unknown
Speed
Unknown
Apparent Right ascension
Unknown
Apparent Declination
Unknown
Sunlit
N/A
Visualization observer readout
Local Sidereal Time
15:57:48
Azimuth
Unknown
Elevation
Unknown
Doppler factor
Unknown
Orbital elements
Apogee altitude
486.239 km
Perigee altitude
483.901 km
Semi-major axis
6,863.207 km
Eccentricity
0.00017
Inclination
43.0016°
RAAN
141.27°
Arg. of periapsis
265.1098°
True anomaly
94.97534°
Mean anomaly
94.9559°
Eccentric anomaly
94.96562°
Mean motion
3.81727 °/min
Orbital period
94.31 mins
BSTAR
-0.00012548
Loading maneuver chart data...
Computing Atmospheric mass density...
Loading historical data...
Loading historical data...
Loading historical data...
Loading historical data...
Loading historical data...
Loading historical data...
Loading historical data...

Documentation

Showing up to 5 results
|